TimeEDT,TemperatureF,Dew PointF,Humidity,Sea Level PressureIn,VisibilityMPH,Wind Direction,Wind SpeedMPH,Gust SpeedMPH,PrecipitationIn,Events,Conditions,WindDirDegrees,DateUTC
12:58 AM,80.4,73.4,79,29.74,10.0,Variable,3.5,-,N/A,,Clear,0,2013-07-24 04:58:00
1:58 AM,79.7,72.9,80,29.72,10.0,Variable,2.3,-,N/A,,Clear,0,2013-07-24 05:58:00
2:58 AM,79.3,72.9,80,29.70,10.0,SSW,4.6,-,N/A,,Clear,200,2013-07-24 06:58:00
3:58 AM,77.0,72.9,87,29.70,10.0,NE,3.5,-,N/A,,Clear,40,2013-07-24 07:58:00
4:58 AM,76.3,72.7,89,29.70,10.0,West,3.5,-,N/A,,Clear,270,2013-07-24 08:58:00
5:58 AM,75.9,72.5,89,29.71,10.0,West,4.6,-,N/A,,Clear,260,2013-07-24 09:58:00
6:58 AM,75.7,72.5,90,29.72,10.0,WSW,2.3,-,N/A,,Clear,240,2013-07-24 10:58:00
7:58 AM,77.2,73.4,88,29.75,10.0,West,4.6,-,N/A,,Clear,260,2013-07-24 11:58:00
8:58 AM,80.2,74.1,82,29.75,10.0,WNW,1.2,-,N/A,,Clear,290,2013-07-24 12:58:00
9:58 AM,82.8,73.4,73,29.77,10.0,NW,4.6,-,N/A,,Clear,310,2013-07-24 13:58:00
10:58 AM,85.1,74.1,70,29.77,10.0,WNW,5.8,-,N/A,,Clear,300,2013-07-24 14:58:00
11:58 AM,87.1,73.9,65,29.77,10.0,NW,6.9,-,N/A,,Clear,310,2013-07-24 15:58:00
12:58 PM,87.6,73.0,62,29.77,10.0,Variable,3.5,-,N/A,,Scattered Clouds,0,2013-07-24 16:58:00
1:58 PM,87.8,70.9,57,29.77,10.0,NW,3.5,-,N/A,,Scattered Clouds,320,2013-07-24 17:58:00
2:58 PM,84.7,70.2,61,29.77,10.0,NE,8.1,-,N/A,,Scattered Clouds,40,2013-07-24 18:58:00
3:58 PM,88.3,72.0,58,29.76,10.0,NE,9.2,-,N/A,,Clear,50,2013-07-24 19:58:00
4:58 PM,86.7,72.3,62,29.76,10.0,ENE,9.2,-,N/A,,Clear,70,2013-07-24 20:58:00
5:58 PM,85.8,72.1,63,29.77,10.0,ENE,10.4,-,N/A,,Clear,60,2013-07-24 21:58:00
6:58 PM,83.5,72.9,70,29.77,10.0,NE,5.8,-,N/A,,Clear,50,2013-07-24 22:58:00
7:58 PM,82.6,71.2,68,29.79,10.0,ENE,8.1,-,N/A,,Scattered Clouds,60,2013-07-24 23:58:00
8:58 PM,80.4,69.6,69,29.82,10.0,NE,5.8,-,N/A,,Partly Cloudy,40,2013-07-25 00:58:00
9:58 PM,79.3,68.5,69,29.83,10.0,Variable,5.8,-,N/A,,Scattered Clouds,0,2013-07-25 01:58:00
10:58 PM,78.6,68.7,72,29.83,10.0,Variable,4.6,-,N/A,,Scattered Clouds,0,2013-07-25 02:58:00
11:10 PM,78.8,69.8,74,29.82,10.0,NNE,5.8,-,N/A,,Drizzle,30,2013-07-25 03:10:00
11:58 PM,75.4,72.3,90,29.85,9.0,WNW,4.6,-,0.04,Rain-Thunderstorm,Light Rain,290,2013-07-25 03:58:00